Location: Alderney
(49.7170°N, 2.2000°W)
Time: 18:45:15
(UTC+01:00)

Tiangong 2 - Visible Passes

Search period start: 17 July 2018 00:00
Search period end: 27 July 2018 00:00
Orbit: 386 x 394 km, 42.8° (Epoch: 17 July)

Date Brightness Start Highest point End Pass type
(mag) Time Alt. Az. Time Alt. Az. Time Alt. Az.
17 Jul 3.0 23:18:47 10° WSW 23:20:19 17° SSW 23:20:19 17° SSW visible
18 Jul 2.7 22:21:02 10° WSW 22:23:30 21° S 22:25:03 15° SSE visible
19 Jul 3.3 23:00:37 10° SW 23:02:04 13° SSW 23:02:04 13° SSW visible
20 Jul 3.0 22:02:35 10° WSW 22:04:45 17° SSW 22:06:46 11° SSE visible
22 Jul 3.5 21:44:29 10° SW 21:45:56 13° SSW 21:47:22 10° S visible
